Simultaneous Nadir Overpasses (SNOs) Predictions

Prediction of SNOs between AQUA and METOP-C Satellite Orbit:

Table of predicted SNOs for the next 14.0 days since TLE Epoch: 11/13/2020
Index Date (AQUA) Time (AQUA) Lat,Lon (AQUA) SZA (AQUA ) Date (METOP-C) Time (METOP-C) Lat,Lon (METOP-C) SZA (METOP-C ) Distance(km) Time Diff (sec)
1 11/14/2020 02:38:09 73.65, 135.05 91.88 11/14/2020 02:37:14 73.67, 134.95 91.90 3.53 55
2 11/14/2020 03:27:36 -73.73, -57.49 88.03 11/14/2020 03:27:54 -73.76, -57.52 88.01 2.69 18
3 11/14/2020 04:17:15 74.32, 108.81 92.59 11/14/2020 04:18:22 74.34, 111.27 92.59 73.78 67
4 11/16/2020 22:12:24 73.68,-158.57 92.62 11/16/2020 22:11:38 73.68,-158.62 92.62 1.34 46
5 11/16/2020 23:01:51 -73.76, 8.89 87.30 11/16/2020 23:02:18 -73.77, 8.91 87.29 0.61 27
6 11/19/2020 17:46:39 73.71, -92.21 93.32 11/19/2020 17:46:02 73.69, -92.19 93.30 2.64 37
7 11/19/2020 18:36:05 -73.74, 75.37 86.65 11/19/2020 18:36:42 -73.77, 75.33 86.62 3.26 37
8 11/22/2020 13:20:52 73.71, -25.75 93.92 11/22/2020 13:20:25 73.70, -25.77 93.92 0.94 27
9 11/22/2020 14:10:19 -73.79, 141.72 85.99 11/22/2020 14:11:05 -73.77, 141.74 86.01 1.61 46
10 11/25/2020 08:05:28 -73.16,-125.80 86.08 11/25/2020 08:04:20 -73.15,-127.95 86.06 69.04 68
11 11/25/2020 08:55:06 73.70, 40.70 94.49 11/25/2020 08:54:49 73.70, 40.65 94.49 1.43 17
12 11/25/2020 09:44:33 -73.79,-151.84 85.43 11/25/2020 09:45:29 -73.77,-151.85 85.44 1.29 56
